Location: Bennemühlen
(52.5740°N, 9.7135°E)
Time: 05:56:42
(UTC+00:00)

A-11 Canister half - Pass Details

Date: 22 February 2026
Orbit: 1512 x 1687 km, 47.2° (Epoch: 8 March)

Event Time Altitude Azimuth Distance (km) Brightness Sun altitude
Rises 18:55:16 0° 218° (SW) 4,930 12.0 -20.1°
Reaches altitude 10° 18:58:40 10° 212° (SSW) 3,946 11.4 -20.6°
Maximum altitude 19:07:50 41° 147° (SSE) 2,292 9.5 -22.0°
Enters shadow 19:10:55 33° 112° (ESE) 2,530 9.5 -22.4°
Drops below altitude 10° 19:16:53 10° 83° (E) 3,898 - -23.3°
Sets 19:20:12 0° 76° (ENE) 4,865 - -23.8°
